This is the latest recevied weather packets stored in our database for station/object IK1QAD-3. If no packets are shown the sender has not sent any weather packets the latest 10 day(s).
| Time | Temp. | Humidity | Pressure | Rain* | Wind** | Luminosity | Snow |
|---|---|---|---|---|---|---|---|
| 1777541911 | 18.33° C | 59% | 1019.2 hPa | 0 mm | - | - | - |
| 1777541605 | 18.33° C | 59% | 1019.2 hPa | 0 mm | - | - | - |
| 1777541323 | 18.33° C | 60% | 1019.2 hPa | 0 mm | - | - | - |
| 1777541015 | 18.33° C | 61% | 1019.3 hPa | 0 mm | - | - | - |
| 1777540712 | 18.33° C | 59% | 1019.1 hPa | 0 mm | - | - | - |
| 1777540412 | 18.33° C | 60% | 1019.1 hPa | 0 mm | - | - | - |
| 1777540124 | 18.33° C | 59% | 1019.1 hPa | 0 mm | - | - | - |
| 1777539813 | 18.89° C | 60% | 1019 hPa | 0 mm | - | - | - |
| 1777539524 | 18.89° C | 59% | 1018.9 hPa | 0 mm | - | - | - |
| 1777539222 | 19.44° C | 59% | 1018.9 hPa | 0 mm | - | - | - |
| 1777538917 | 18.89° C | 58% | 1018.9 hPa | 0 mm | - | - | - |
| 1777538617 | 18.89° C | 57% | 1018.9 hPa | 0 mm | - | - | - |
| 1777538316 | 18.89° C | 60% | 1018.7 hPa | 0 mm | - | - | - |
| 1777538008 | 19.44° C | 59% | 1018.7 hPa | 0 mm | - | - | - |
| 1777537705 | 19.44° C | 58% | 1018.6 hPa | 0 mm | - | - | - |
| 1777537421 | 19.44° C | 57% | 1018.5 hPa | 0 mm | - | - | - |
| 1777537115 | 19.44° C | 57% | 1018.3 hPa | 0 mm | - | - | - |
| 1777536813 | 19.44° C | 59% | 1018.4 hPa | 0 mm | - | - | - |
| 1777536508 | 19.44° C | 58% | 1018.4 hPa | 0 mm | - | - | - |
| 1777536223 | 19.44° C | 58% | 1018.3 hPa | 0 mm | - | - | - |
| 1777535914 | 19.44° C | 60% | 1018.3 hPa | 0 mm | - | - | - |
| 1777535610 | 19.44° C | 58% | 1018.2 hPa | 0 mm | - | - | - |
| 1777535308 | 19.44° C | 59% | 1018.1 hPa | 0 mm | - | - | - |
| 1777535023 | 19.44° C | 60% | 1018.1 hPa | 0 mm | - | - | - |
| 1777534723 | 18.89° C | 60% | 1018.1 hPa | 0 mm | - | - | - |
* Rain latest hour (hover to see other rain measurements)
** Current wind speed in m/s (hover to see current wind gust speed)